Time,TemperatureF,DewpointF,PressureIn,WindDirection,WindDirectionDegrees,WindSpeedMPH,WindSpeedGustMPH,Humidity,HourlyPrecipIn,Conditions,Clouds,dailyrainin,SoftwareType,DateUTC
2013-05-11 00:02:00,74.7,68.7,30.09,NNE,17,5.0,7.0,82,0.00,,,0.00,meteohub,2013-05-11 10:02:00,
2013-05-11 00:07:00,74.5,68.9,30.08,NNE,22,4.0,7.0,83,0.00,,,0.00,meteohub,2013-05-11 10:07:00,
2013-05-11 00:12:00,74.1,68.9,30.08,NW,316,1.0,9.0,84,0.00,,,0.00,meteohub,2013-05-11 10:12:00,
2013-05-11 00:17:00,73.9,68.7,30.08,NW,308,1.0,9.0,84,0.00,,,0.00,meteohub,2013-05-11 10:17:00,
2013-05-11 00:22:00,73.8,68.9,30.08,NW,316,0.0,9.0,85,0.00,,,0.00,meteohub,2013-05-11 10:22:00,
2013-05-11 00:27:00,73.8,68.9,30.08,NW,321,0.0,8.0,85,0.00,,,0.00,meteohub,2013-05-11 10:27:00,
2013-05-11 00:32:00,73.8,68.9,30.08,ENE,59,2.0,4.0,85,0.00,,,0.00,meteohub,2013-05-11 10:32:00,
2013-05-11 00:37:00,73.6,68.7,30.07,NE,36,2.0,2.0,85,0.00,,,0.00,meteohub,2013-05-11 10:37:00,
2013-05-11 00:42:00,73.6,68.7,30.07,NE,53,2.0,5.0,85,0.00,,,0.00,meteohub,2013-05-11 10:42:00,
2013-05-11 00:47:00,73.9,69.1,30.07,NNE,32,2.0,6.0,85,0.00,,,0.00,meteohub,2013-05-11 10:47:00,
2013-05-11 00:52:00,74.1,68.9,30.07,NE,54,2.0,9.0,84,0.00,,,0.00,meteohub,2013-05-11 10:52:00,
2013-05-11 00:57:00,74.3,68.7,30.07,NNE,25,8.0,9.0,83,0.00,,,0.00,meteohub,2013-05-11 10:57:00,
2013-05-11 01:02:00,74.5,68.9,30.06,ENE,57,2.0,9.0,83,0.00,,,0.00,meteohub,2013-05-11 11:02:00,
2013-05-11 01:07:00,74.3,68.4,30.06,NNW,338,2.0,8.0,82,0.00,,,0.00,meteohub,2013-05-11 11:07:00,
2013-05-11 01:12:00,74.1,68.5,30.06,North,349,4.0,8.0,83,0.00,,,0.00,meteohub,2013-05-11 11:12:00,
2013-05-11 01:17:00,73.9,68.4,30.06,NW,321,4.0,7.0,83,0.00,,,0.00,meteohub,2013-05-11 11:17:00,
2013-05-11 01:22:00,73.8,68.4,30.06,NNW,341,4.0,7.0,83,0.00,,,0.00,meteohub,2013-05-11 11:22:00,
2013-05-11 01:27:00,73.4,68.2,30.05,NNW,347,2.0,9.0,84,0.00,,,0.00,meteohub,2013-05-11 11:27:00,
2013-05-11 01:32:00,73.2,68.2,30.05,NE,46,2.0,9.0,84,0.00,,,0.00,meteohub,2013-05-11 11:32:00,
2013-05-11 01:37:00,73.2,68.4,30.05,North,6,0.0,9.0,85,0.00,,,0.00,meteohub,2013-05-11 11:37:00,
2013-05-11 01:42:00,73.2,68.4,30.05,NNW,347,0.0,6.0,85,0.00,,,0.00,meteohub,2013-05-11 11:42:00,
2013-05-11 01:47:00,73.2,68.4,30.04,NE,41,2.0,5.0,85,0.00,,,0.00,meteohub,2013-05-11 11:47:00,
2013-05-11 01:52:00,73.2,68.2,30.04,North,4,7.0,7.0,84,0.00,,,0.00,meteohub,2013-05-11 11:52:00,
2013-05-11 01:57:00,73.6,68.4,30.04,North,355,9.0,9.0,84,0.00,,,0.00,meteohub,2013-05-11 11:57:00,
2013-05-11 02:02:00,73.8,68.5,30.04,ESE,104,0.0,11.0,84,0.00,,,0.00,meteohub,2013-05-11 12:02:00,
2013-05-11 02:07:00,73.6,68.4,30.04,North,1,9.0,11.0,84,0.00,,,0.00,meteohub,2013-05-11 12:07:00,
2013-05-11 02:12:00,73.4,68.2,30.04,NNW,327,1.0,11.0,84,0.00,,,0.00,meteohub,2013-05-11 12:12:00,
2013-05-11 02:17:00,73.2,68.4,30.04,North,5,9.0,10.0,85,0.00,,,0.00,meteohub,2013-05-11 12:17:00,
2013-05-11 02:22:00,73.0,68.2,30.03,North,7,4.0,12.0,85,0.00,,,0.00,meteohub,2013-05-11 12:22:00,
2013-05-11 02:27:00,73.0,68.0,30.03,NE,46,9.0,12.0,84,0.00,,,0.00,meteohub,2013-05-11 12:27:00,
2013-05-11 02:32:00,73.0,67.3,30.03,ENE,77,10.0,15.0,82,0.00,,,0.00,meteohub,2013-05-11 12:32:00,
2013-05-11 02:37:00,73.0,67.3,30.03,NNW,327,4.0,15.0,82,0.00,,,0.00,meteohub,2013-05-11 12:37:00,
2013-05-11 02:42:00,73.0,67.3,30.03,NE,44,13.0,15.0,82,0.00,,,0.00,meteohub,2013-05-11 12:42:00,
2013-05-11 02:47:00,73.0,67.3,30.03,NE,47,6.0,15.0,82,0.00,,,0.00,meteohub,2013-05-11 12:47:00,
2013-05-11 02:52:00,72.9,67.1,30.03,NE,54,4.0,14.0,82,0.00,,,0.00,meteohub,2013-05-11 12:52:00,
2013-05-11 02:57:00,72.9,67.1,30.02,NNW,331,2.0,14.0,82,0.00,,,0.00,meteohub,2013-05-11 12:57:00,
2013-05-11 03:02:00,73.0,67.3,30.02,ENE,63,2.0,12.0,82,0.00,,,0.00,meteohub,2013-05-11 13:02:00,
2013-05-11 03:07:00,73.0,67.3,30.02,NE,41,7.0,11.0,82,0.00,,,0.00,meteohub,2013-05-11 13:07:00,
2013-05-11 03:12:00,73.2,67.5,30.02,ENE,68,4.0,11.0,82,0.00,,,0.00,meteohub,2013-05-11 13:12:00,
2013-05-11 03:17:00,73.4,68.0,30.02,NNE,22,8.0,11.0,83,0.00,,,0.00,meteohub,2013-05-11 13:17:00,
2013-05-11 03:22:00,73.6,68.2,30.02,NNE,18,4.0,11.0,83,0.00,,,0.00,meteohub,2013-05-11 13:22:00,
2013-05-11 03:27:00,73.6,68.2,30.02,NNW,345,5.0,10.0,83,0.00,,,0.00,meteohub,2013-05-11 13:27:00,
2013-05-11 03:32:00,73.6,68.2,30.02,NE,49,2.0,10.0,83,0.00,,,0.00,meteohub,2013-05-11 13:32:00,
2013-05-11 03:37:00,73.6,68.2,30.02,NE,36,4.0,10.0,83,0.00,,,0.00,meteohub,2013-05-11 13:37:00,
2013-05-11 03:42:00,73.6,68.2,30.02,NE,36,7.0,10.0,83,0.00,,,0.00,meteohub,2013-05-11 13:42:00,
2013-05-11 03:47:00,73.8,68.4,30.02,NE,44,5.0,9.0,83,0.00,,,0.00,meteohub,2013-05-11 13:47:00,
2013-05-11 03:52:00,73.8,68.0,30.02,NE,51,7.0,9.0,82,0.00,,,0.00,meteohub,2013-05-11 13:52:00,
2013-05-11 03:57:00,73.8,68.0,30.02,NE,41,2.0,9.0,82,0.00,,,0.00,meteohub,2013-05-11 13:57:00,
2013-05-11 04:02:00,73.9,68.2,30.02,NW,308,1.0,9.0,82,0.00,,,0.00,meteohub,2013-05-11 14:02:00,
2013-05-11 04:07:00,73.8,68.0,30.02,WNW,290,4.0,9.0,82,0.00,,,0.00,meteohub,2013-05-11 14:07:00,
2013-05-11 04:12:00,73.6,68.2,30.02,NW,309,1.0,5.0,83,0.00,,,0.00,meteohub,2013-05-11 14:12:00,
2013-05-11 04:17:00,73.2,67.8,30.02,NW,315,2.0,7.0,83,0.00,,,0.00,meteohub,2013-05-11 14:17:00,
2013-05-11 04:22:00,73.2,67.8,30.02,WNW,301,4.0,7.0,83,0.00,,,0.00,meteohub,2013-05-11 14:22:00,
2013-05-11 04:27:00,73.0,68.0,30.02,NW,321,2.0,8.0,84,0.00,,,0.00,meteohub,2013-05-11 14:27:00,
2013-05-11 04:32:00,72.9,68.0,30.02,NNW,335,3.0,9.0,85,0.00,,,0.00,meteohub,2013-05-11 14:32:00,
2013-05-11 04:37:00,72.7,67.8,30.02,WNW,294,2.0,11.0,85,0.00,,,0.00,meteohub,2013-05-11 14:37:00,
2013-05-11 04:42:00,72.3,67.8,30.02,NE,46,6.0,11.0,86,0.00,,,0.00,meteohub,2013-05-11 14:42:00,
2013-05-11 04:47:00,72.1,67.6,30.02,NNW,339,3.0,11.0,86,0.00,,,0.00,meteohub,2013-05-11 14:47:00,
2013-05-11 04:52:00,72.1,67.6,30.03,North,0,4.0,10.0,86,0.00,,,0.00,meteohub,2013-05-11 14:52:00,
2013-05-11 04:57:00,72.1,67.6,30.03,NW,325,3.0,10.0,86,0.00,,,0.00,meteohub,2013-05-11 14:57:00,
2013-05-11 05:02:00,72.3,67.8,30.03,North,359,4.0,8.0,86,0.00,,,0.00,meteohub,2013-05-11 15:02:00,
2013-05-11 05:07:00,72.3,67.8,30.03,North,350,1.0,8.0,86,0.00,,,0.00,meteohub,2013-05-11 15:07:00,
2013-05-11 05:12:00,72.3,67.6,30.03,NW,325,1.0,6.0,85,0.00,,,0.00,meteohub,2013-05-11 15:12:00,
2013-05-11 05:17:00,72.3,67.6,30.03,NW,309,1.0,5.0,85,0.00,,,0.00,meteohub,2013-05-11 15:17:00,
2013-05-11 05:22:00,72.3,67.8,30.03,WNW,300,0.0,4.0,86,0.00,,,0.00,meteohub,2013-05-11 15:22:00,
2013-05-11 05:27:00,72.3,67.8,30.03,NNE,32,0.0,4.0,86,0.00,,,0.00,meteohub,2013-05-11 15:27:00,
2013-05-11 05:32:00,72.1,67.6,30.03,NNE,13,1.0,4.0,86,0.00,,,0.00,meteohub,2013-05-11 15:32:00,
2013-05-11 05:37:00,72.1,67.6,30.03,NE,36,0.0,2.0,86,0.00,,,0.00,meteohub,2013-05-11 15:37:00,
2013-05-11 05:42:00,72.1,67.6,30.04,NE,36,0.0,2.0,86,0.00,,,0.00,meteohub,2013-05-11 15:42:00,
2013-05-11 05:47:00,72.1,67.6,30.04,SSE,148,0.0,2.0,86,0.00,,,0.00,meteohub,2013-05-11 15:47:00,
2013-05-11 05:52:00,72.3,67.8,30.04,WSW,238,2.0,2.0,86,0.00,,,0.00,meteohub,2013-05-11 15:52:00,
2013-05-11 05:57:00,72.3,67.8,30.03,NW,309,3.0,3.0,86,0.00,,,0.00,meteohub,2013-05-11 15:57:00,
2013-05-11 06:02:00,72.3,67.8,30.04,West,274,3.0,4.0,86,0.00,,,0.00,meteohub,2013-05-11 16:02:00,
2013-05-11 06:07:00,72.7,68.2,30.04,WSW,255,3.0,5.0,86,0.00,,,0.00,meteohub,2013-05-11 16:07:00,
2013-05-11 06:12:00,72.3,67.8,30.04,NW,316,0.0,9.0,86,0.00,,,0.00,meteohub,2013-05-11 16:12:00,
2013-05-11 06:17:00,72.3,68.2,30.04,ENE,65,1.0,9.0,87,0.00,,,0.00,meteohub,2013-05-11 16:17:00,
2013-05-11 06:22:00,72.1,68.0,30.04,East,83,1.0,6.0,87,0.00,,,0.00,meteohub,2013-05-11 16:22:00,
2013-05-11 06:27:00,72.3,68.2,30.05,East,89,1.0,2.0,87,0.00,,,0.00,meteohub,2013-05-11 16:27:00,
2013-05-11 06:32:00,72.3,68.2,30.05,ENE,72,1.0,3.0,87,0.00,,,0.00,meteohub,2013-05-11 16:32:00,
2013-05-11 06:37:00,72.7,68.5,30.05,North,11,1.0,4.0,87,0.00,,,0.00,meteohub,2013-05-11 16:37:00,
2013-05-11 06:42:00,72.9,68.7,30.06,NNE,16,0.0,4.0,87,0.00,,,0.00,meteohub,2013-05-11 16:42:00,
2013-05-11 06:47:00,73.2,68.7,30.06,NE,54,0.0,4.0,86,0.00,,,0.00,meteohub,2013-05-11 16:47:00,
2013-05-11 06:52:00,73.8,69.3,30.06,SSE,163,1.0,4.0,86,0.00,,,0.00,meteohub,2013-05-11 16:52:00,
2013-05-11 06:57:00,73.9,69.1,30.06,SSW,210,2.0,2.0,85,0.00,,,0.00,meteohub,2013-05-11 16:57:00,
2013-05-11 07:02:00,74.5,69.3,30.05,SW,235,1.0,4.0,84,0.00,,,0.00,meteohub,2013-05-11 17:02:00,
2013-05-11 07:07:00,74.7,69.1,30.05,SW,221,3.0,6.0,83,0.00,,,0.00,meteohub,2013-05-11 17:07:00,
2013-05-11 07:12:00,75.0,69.1,30.05,SW,236,2.0,6.0,82,0.00,,,0.00,meteohub,2013-05-11 17:12:00,
2013-05-11 07:17:00,74.8,68.5,30.06,WSW,243,4.0,7.0,81,0.00,,,0.00,meteohub,2013-05-11 17:17:00,
2013-05-11 07:22:00,74.8,68.5,30.06,SSE,158,1.0,7.0,81,0.00,,,0.00,meteohub,2013-05-11 17:22:00,
2013-05-11 07:27:00,75.2,68.9,30.06,ESE,103,0.0,6.0,81,0.00,,,0.00,meteohub,2013-05-11 17:27:00,
2013-05-11 07:32:00,75.7,69.8,30.06,SW,219,0.0,5.0,82,0.00,,,0.00,meteohub,2013-05-11 17:32:00,
2013-05-11 07:37:00,76.3,70.0,30.05,SW,229,2.0,5.0,81,0.00,,,0.00,meteohub,2013-05-11 17:37:00,
2013-05-11 07:42:00,76.3,70.0,30.06,SW,236,8.0,8.0,81,0.00,,,0.00,meteohub,2013-05-11 17:42:00,
2013-05-11 07:47:00,76.3,70.0,30.06,West,277,4.0,8.0,81,0.00,,,0.00,meteohub,2013-05-11 17:47:00,
2013-05-11 07:52:00,76.3,70.0,30.06,SSW,211,2.0,8.0,81,0.00,,,0.00,meteohub,2013-05-11 17:52:00,
2013-05-11 07:57:00,76.3,69.6,30.06,WSW,250,2.0,8.0,80,0.00,,,0.00,meteohub,2013-05-11 17:57:00,
2013-05-11 08:02:00,76.6,70.0,30.06,WNW,284,3.0,6.0,80,0.00,,,0.00,meteohub,2013-05-11 18:02:00,
2013-05-11 08:07:00,76.5,69.8,30.06,West,262,3.0,6.0,80,0.00,,,0.00,meteohub,2013-05-11 18:07:00,
2013-05-11 08:12:00,76.1,69.4,30.06,South,187,3.0,6.0,80,0.00,,,0.00,meteohub,2013-05-11 18:12:00,
2013-05-11 08:17:00,76.1,69.8,30.06,WSW,240,1.0,7.0,81,0.00,,,0.00,meteohub,2013-05-11 18:17:00,
2013-05-11 08:22:00,76.1,70.2,30.06,West,259,4.0,7.0,82,0.00,,,0.00,meteohub,2013-05-11 18:22:00,
2013-05-11 08:27:00,76.3,70.0,30.06,West,262,2.0,7.0,81,0.00,,,0.00,meteohub,2013-05-11 18:27:00,
2013-05-11 08:32:00,75.9,69.6,30.06,WNW,285,4.0,6.0,81,0.00,,,0.00,meteohub,2013-05-11 18:32:00,
2013-05-11 08:37:00,75.7,69.8,30.06,WSW,246,3.0,6.0,82,0.00,,,0.00,meteohub,2013-05-11 18:37:00,
2013-05-11 08:42:00,75.7,69.8,30.06,West,264,2.0,6.0,82,0.00,,,0.00,meteohub,2013-05-11 18:42:00,
2013-05-11 08:47:00,75.7,69.8,30.06,West,281,1.0,4.0,82,0.00,,,0.00,meteohub,2013-05-11 18:47:00,
2013-05-11 08:52:00,75.6,69.3,30.06,West,280,6.0,8.0,81,0.00,,,0.00,meteohub,2013-05-11 18:52:00,
2013-05-11 08:57:00,75.4,69.4,30.06,WNW,302,2.0,8.0,82,0.00,,,0.00,meteohub,2013-05-11 18:57:00,
2013-05-11 09:02:00,75.4,69.1,30.06,WNW,294,5.0,8.0,81,0.00,,,0.00,meteohub,2013-05-11 19:02:00,
2013-05-11 09:07:00,75.6,69.3,30.06,WSW,253,3.0,6.0,81,0.00,,,0.00,meteohub,2013-05-11 19:07:00,
2013-05-11 09:12:00,76.5,70.2,30.06,South,188,3.0,6.0,81,0.00,,,0.00,meteohub,2013-05-11 19:12:00,
2013-05-11 09:17:00,77.5,70.2,30.06,SSE,149,2.0,5.0,78,0.00,,,0.00,meteohub,2013-05-11 19:17:00,
2013-05-11 09:22:00,78.3,69.6,30.06,SSW,199,2.0,4.0,75,0.00,,,0.00,meteohub,2013-05-11 19:22:00,
2013-05-11 09:27:00,78.6,69.6,30.06,WSW,249,5.0,5.0,74,0.00,,,0.00,meteohub,2013-05-11 19:27:00,
2013-05-11 09:32:00,78.8,70.2,30.06,West,269,4.0,6.0,75,0.00,,,0.00,meteohub,2013-05-11 19:32:00,
2013-05-11 09:37:00,78.8,69.8,30.06,NNW,329,12.0,12.0,74,0.00,,,0.00,meteohub,2013-05-11 19:37:00,
2013-05-11 09:42:00,78.6,69.6,30.06,WNW,284,5.0,14.0,74,0.00,,,0.00,meteohub,2013-05-11 19:42:00,
2013-05-11 09:47:00,78.6,70.0,30.06,NW,315,8.0,15.0,75,0.00,,,0.00,meteohub,2013-05-11 19:47:00,
2013-05-11 09:52:00,78.8,69.4,30.06,North,1,5.0,15.0,73,0.00,,,0.00,meteohub,2013-05-11 19:52:00,
2013-05-11 09:57:00,78.8,69.4,30.06,NW,310,4.0,15.0,73,0.00,,,0.00,meteohub,2013-05-11 19:57:00,
2013-05-11 10:02:00,78.6,68.9,30.06,NW,316,3.0,15.0,72,0.00,,,0.00,meteohub,2013-05-11 20:02:00,
2013-05-11 10:07:00,78.6,69.3,30.06,West,281,8.0,15.0,73,0.00,,,0.00,meteohub,2013-05-11 20:07:00,
2013-05-11 10:12:00,78.1,69.1,30.06,NW,311,11.0,14.0,74,0.00,,,0.00,meteohub,2013-05-11 20:12:00,
2013-05-11 10:17:00,78.1,69.4,30.06,West,274,7.0,16.0,75,0.00,,,0.00,meteohub,2013-05-11 20:17:00,
2013-05-11 10:22:00,78.1,69.4,30.05,NNW,330,10.0,16.0,75,0.00,,,0.00,meteohub,2013-05-11 20:22:00,
2013-05-11 10:27:00,78.1,69.4,30.05,NNW,331,7.0,18.0,75,0.00,,,0.00,meteohub,2013-05-11 20:27:00,
2013-05-11 10:32:00,78.1,69.1,30.05,WNW,295,11.0,19.0,74,0.00,,,0.00,meteohub,2013-05-11 20:32:00,
2013-05-11 10:37:00,78.4,69.1,30.05,West,280,7.0,19.0,73,0.00,,,0.00,meteohub,2013-05-11 20:37:00,
2013-05-11 10:42:00,78.8,69.4,30.05,WNW,288,8.0,18.0,73,0.00,,,0.00,meteohub,2013-05-11 20:42:00,
2013-05-11 10:47:00,79.3,69.4,30.05,West,266,13.0,18.0,72,0.00,,,0.00,meteohub,2013-05-11 20:47:00,
2013-05-11 10:52:00,79.3,69.1,30.05,WNW,298,8.0,18.0,71,0.00,,,0.00,meteohub,2013-05-11 20:52:00,
2013-05-11 10:57:00,79.3,69.1,30.05,WNW,294,8.0,16.0,71,0.00,,,0.00,meteohub,2013-05-11 20:57:00,
2013-05-11 11:02:00,79.2,69.3,30.05,NW,306,10.0,19.0,72,0.00,,,0.00,meteohub,2013-05-11 21:02:00,
2013-05-11 11:07:00,79.2,68.9,30.05,West,276,7.0,19.0,71,0.00,,,0.00,meteohub,2013-05-11 21:07:00,
2013-05-11 11:12:00,79.3,69.1,30.05,WNW,285,10.0,19.0,71,0.00,,,0.00,meteohub,2013-05-11 21:12:00,
2013-05-11 11:17:00,79.2,68.9,30.04,NNW,347,12.0,18.0,71,0.00,,,0.00,meteohub,2013-05-11 21:17:00,
2013-05-11 11:22:00,79.3,68.4,30.05,West,276,5.0,17.0,69,0.00,,,0.00,meteohub,2013-05-11 21:22:00,
2013-05-11 11:27:00,79.7,69.1,30.04,WNW,287,7.0,17.0,70,0.00,,,0.00,meteohub,2013-05-11 21:27:00,
2013-05-11 11:32:00,79.7,68.2,30.04,NW,313,7.0,16.0,68,0.00,,,0.00,meteohub,2013-05-11 21:32:00,
2013-05-11 11:37:00,80.1,68.5,30.04,WNW,302,12.0,19.0,68,0.00,,,0.00,meteohub,2013-05-11 21:37:00,
2013-05-11 11:42:00,80.2,69.1,30.04,NW,311,11.0,19.0,69,0.00,,,0.00,meteohub,2013-05-11 21:42:00,
2013-05-11 11:47:00,80.1,68.5,30.04,WNW,290,16.0,21.0,68,0.00,,,0.00,meteohub,2013-05-11 21:47:00,
2013-05-11 11:52:00,80.1,68.9,30.04,NNW,327,8.0,21.0,69,0.00,,,0.00,meteohub,2013-05-11 21:52:00,
2013-05-11 11:57:00,80.2,69.1,30.04,WNW,295,8.0,21.0,69,0.00,,,0.00,meteohub,2013-05-11 21:57:00,
2013-05-11 12:02:00,80.4,68.9,30.04,NW,316,9.0,20.0,68,0.00,,,0.00,meteohub,2013-05-11 22:02:00,
2013-05-11 12:07:00,80.2,68.7,30.04,WNW,298,9.0,21.0,68,0.00,,,0.00,meteohub,2013-05-11 22:07:00,
2013-05-11 12:12:00,80.1,68.9,30.04,WNW,300,8.0,21.0,69,0.00,,,0.00,meteohub,2013-05-11 22:12:00,
2013-05-11 12:17:00,80.2,69.1,30.04,NW,323,14.0,21.0,69,0.00,,,0.00,meteohub,2013-05-11 22:17:00,
2013-05-11 12:22:00,79.7,68.5,30.04,NW,316,10.0,21.0,69,0.00,,,0.00,meteohub,2013-05-11 22:22:00,
2013-05-11 12:27:00,79.5,68.5,30.04,NW,304,10.0,21.0,69,0.00,,,0.00,meteohub,2013-05-11 22:27:00,
2013-05-11 12:32:00,79.5,68.5,30.04,NW,304,2.0,21.0,69,0.00,,,0.00,meteohub,2013-05-11 22:32:00,
2013-05-11 12:37:00,79.7,68.2,30.04,NNW,328,9.0,16.0,68,0.00,,,0.00,meteohub,2013-05-11 22:37:00,
2013-05-11 12:42:00,79.5,68.0,30.04,North,1,5.0,16.0,68,0.00,,,0.00,meteohub,2013-05-11 22:42:00,
2013-05-11 12:47:00,79.7,68.2,30.04,WNW,294,7.0,14.0,68,0.00,,,0.00,meteohub,2013-05-11 22:47:00,
2013-05-11 12:52:00,79.9,68.7,30.04,South,186,1.0,14.0,69,0.00,,,0.00,meteohub,2013-05-11 22:52:00,
2013-05-11 12:57:00,79.9,68.4,30.04,NW,317,4.0,14.0,68,0.00,,,0.00,meteohub,2013-05-11 22:57:00,
2013-05-11 13:02:00,79.9,68.0,30.04,West,280,7.0,15.0,67,0.00,,,0.00,meteohub,2013-05-11 23:02:00,
2013-05-11 13:07:00,79.7,68.2,30.03,NW,305,9.0,15.0,68,0.00,,,0.00,meteohub,2013-05-11 23:07:00,
2013-05-11 13:12:00,80.1,68.5,30.03,NW,319,13.0,13.0,68,0.00,,,0.00,meteohub,2013-05-11 23:12:00,
2013-05-11 13:17:00,80.1,68.2,30.03,NNW,327,5.0,14.0,67,0.00,,,0.00,meteohub,2013-05-11 23:17:00,
2013-05-11 13:22:00,80.2,68.7,30.03,WNW,283,6.0,15.0,68,0.00,,,0.00,meteohub,2013-05-11 23:22:00,
2013-05-11 13:27:00,80.4,68.5,30.02,West,269,10.0,15.0,67,0.00,,,0.00,meteohub,2013-05-11 23:27:00,
2013-05-11 13:32:00,80.2,68.7,30.03,NNW,328,8.0,16.0,68,0.00,,,0.00,meteohub,2013-05-11 23:32:00,
2013-05-11 13:37:00,79.9,69.3,30.03,West,264,3.0,16.0,70,0.00,,,0.00,meteohub,2013-05-11 23:37:00,
2013-05-11 13:42:00,80.2,68.7,30.02,West,281,12.0,16.0,68,0.00,,,0.00,meteohub,2013-05-11 23:42:00,
2013-05-11 13:47:00,80.2,69.1,30.02,NE,40,5.0,14.0,69,0.00,,,0.00,meteohub,2013-05-11 23:47:00,
2013-05-11 13:52:00,80.8,70.2,30.01,WNW,283,12.0,18.0,70,0.00,,,0.00,meteohub,2013-05-11 23:52:00,
2013-05-11 13:57:00,80.8,69.3,30.01,NW,316,13.0,18.0,68,0.00,,,0.00,meteohub,2013-05-11 23:57:00,
2013-05-11 14:02:00,80.4,69.3,30.01,NW,316,14.0,18.0,69,0.00,,,0.00,meteohub,2013-05-12 00:02:00,
2013-05-11 14:07:00,80.4,69.3,30.01,North,352,6.0,18.0,69,0.00,,,0.00,meteohub,2013-05-12 00:07:00,
2013-05-11 14:12:00,80.8,69.6,30.01,NW,316,5.0,18.0,69,0.00,,,0.00,meteohub,2013-05-12 00:12:00,
2013-05-11 14:17:00,80.2,70.3,30.01,WNW,302,14.0,17.0,72,0.00,,,0.00,meteohub,2013-05-12 00:17:00,
2013-05-11 14:22:00,79.5,70.9,30.01,NW,307,7.0,17.0,75,0.00,,,0.00,meteohub,2013-05-12 00:22:00,
2013-05-11 14:27:00,79.3,70.7,30.01,NW,321,7.0,17.0,75,0.00,,,0.00,meteohub,2013-05-12 00:27:00,
2013-05-11 14:32:00,79.2,70.5,30.01,NW,317,8.0,20.0,75,0.00,,,0.00,meteohub,2013-05-12 00:32:00,
2013-05-11 14:37:00,80.1,71.4,30.01,WNW,295,5.0,22.0,75,0.00,,,0.00,meteohub,2013-05-12 00:37:00,
2013-05-11 14:42:00,79.9,70.9,30.01,WNW,286,14.0,22.0,74,0.00,,,0.00,meteohub,2013-05-12 00:42:00,
2013-05-11 14:47:00,79.0,70.3,30.01,NW,311,10.0,20.0,75,0.00,,,0.00,meteohub,2013-05-12 00:47:00,
2013-05-11 14:52:00,79.5,70.5,30.00,NW,314,11.0,20.0,74,0.00,,,0.00,meteohub,2013-05-12 00:52:00,
2013-05-11 14:57:00,80.2,70.3,30.00,NNW,342,6.0,20.0,72,0.00,,,0.00,meteohub,2013-05-12 00:57:00,
2013-05-11 15:02:00,80.4,70.9,30.00,NW,316,11.0,20.0,73,0.00,,,0.00,meteohub,2013-05-12 01:02:00,
2013-05-11 15:07:00,80.2,70.9,30.00,WNW,294,7.0,19.0,73,0.00,,,0.00,meteohub,2013-05-12 01:07:00,
2013-05-11 15:12:00,80.2,70.0,30.00,NW,323,10.0,19.0,71,0.00,,,0.00,meteohub,2013-05-12 01:12:00,
2013-05-11 15:17:00,80.2,70.0,30.00,NW,312,8.0,22.0,71,0.00,,,0.00,meteohub,2013-05-12 01:17:00,
2013-05-11 15:22:00,80.1,70.7,30.00,NW,315,11.0,22.0,73,0.00,,,0.00,meteohub,2013-05-12 01:22:00,
2013-05-11 15:27:00,79.7,70.3,30.00,NW,316,15.0,22.0,73,0.00,,,0.00,meteohub,2013-05-12 01:27:00,
2013-05-11 15:32:00,79.3,70.0,30.00,NNW,335,8.0,18.0,73,0.00,,,0.00,meteohub,2013-05-12 01:32:00,
2013-05-11 15:37:00,78.8,69.8,30.00,NW,319,14.0,20.0,74,0.00,,,0.00,meteohub,2013-05-12 01:37:00,
2013-05-11 15:42:00,78.3,69.6,30.00,NW,310,11.0,20.0,75,0.00,,,0.00,meteohub,2013-05-12 01:42:00,
2013-05-11 15:47:00,77.7,70.0,30.00,NW,316,12.0,20.0,77,0.00,,,0.00,meteohub,2013-05-12 01:47:00,
2013-05-11 15:52:00,77.5,69.8,30.00,NNW,347,11.0,20.0,77,0.00,,,0.00,meteohub,2013-05-12 01:52:00,
2013-05-11 15:57:00,76.6,69.6,30.00,NNW,340,14.0,19.0,79,0.00,,,0.00,meteohub,2013-05-12 01:57:00,
2013-05-11 16:02:00,75.7,69.4,30.00,NW,311,5.0,19.0,81,0.00,,,0.00,meteohub,2013-05-12 02:02:00,
2013-05-11 16:07:00,75.4,69.4,30.00,WNW,295,16.0,19.0,82,0.00,,,0.00,meteohub,2013-05-12 02:07:00,
2013-05-11 16:12:00,74.8,69.3,30.00,NW,306,9.0,17.0,83,0.00,,,0.00,meteohub,2013-05-12 02:12:00,
2013-05-11 16:17:00,74.7,69.4,30.00,NW,315,10.0,19.0,84,0.00,,,0.00,meteohub,2013-05-12 02:17:00,
2013-05-11 16:22:00,74.7,69.4,30.00,North,11,17.0,19.0,84,0.00,,,0.00,meteohub,2013-05-12 02:22:00,
2013-05-11 16:27:00,74.1,68.5,30.01,NNW,340,5.0,22.0,83,0.00,,,0.00,meteohub,2013-05-12 02:27:00,
2013-05-11 16:32:00,73.9,68.4,30.01,West,274,14.0,23.0,83,0.00,,,0.00,meteohub,2013-05-12 02:32:00,
2013-05-11 16:37:00,73.9,68.7,30.01,NNW,330,5.0,23.0,84,0.00,,,0.00,meteohub,2013-05-12 02:37:00,
2013-05-11 16:42:00,73.8,68.5,30.01,NNW,331,16.0,23.0,84,0.00,,,0.00,meteohub,2013-05-12 02:42:00,
2013-05-11 16:47:00,73.6,68.4,30.01,NNW,342,4.0,19.0,84,0.00,,,0.00,meteohub,2013-05-12 02:47:00,
2013-05-11 16:52:00,73.2,68.2,30.01,NW,316,15.0,19.0,84,0.00,,,0.00,meteohub,2013-05-12 02:52:00,
2013-05-11 16:57:00,73.0,68.2,30.01,NNW,341,7.0,19.0,85,0.00,,,0.00,meteohub,2013-05-12 02:57:00,
2013-05-11 17:02:00,72.9,67.8,30.02,NNW,330,9.0,17.0,84,0.00,,,0.00,meteohub,2013-05-12 03:02:00,
2013-05-11 17:07:00,72.9,68.0,30.02,NE,41,5.0,20.0,85,0.00,,,0.00,meteohub,2013-05-12 03:07:00,
2013-05-11 17:12:00,72.9,67.8,30.01,NNW,344,15.0,20.0,84,0.00,,,0.00,meteohub,2013-05-12 03:12:00,
2013-05-11 17:17:00,73.0,68.0,30.02,NE,45,7.0,20.0,84,0.00,,,0.00,meteohub,2013-05-12 03:17:00,
2013-05-11 17:22:00,73.0,68.0,30.02,NNW,331,5.0,17.0,84,0.00,,,0.00,meteohub,2013-05-12 03:22:00,
2013-05-11 17:27:00,73.2,67.8,30.02,NE,54,5.0,17.0,83,0.00,,,0.00,meteohub,2013-05-12 03:27:00,
2013-05-11 17:32:00,73.2,67.8,30.02,NNW,336,5.0,16.0,83,0.00,,,0.00,meteohub,2013-05-12 03:32:00,
2013-05-11 17:37:00,73.4,68.0,30.02,NNW,338,8.0,15.0,83,0.00,,,0.00,meteohub,2013-05-12 03:37:00,
2013-05-11 17:42:00,73.2,67.8,30.03,North,8,13.0,20.0,83,0.00,,,0.00,meteohub,2013-05-12 03:42:00,
2013-05-11 17:47:00,73.2,67.8,30.03,NW,318,7.0,20.0,83,0.00,,,0.00,meteohub,2013-05-12 03:47:00,
2013-05-11 17:52:00,73.0,68.0,30.03,NW,323,3.0,20.0,84,0.00,,,0.00,meteohub,2013-05-12 03:52:00,
2013-05-11 17:57:00,73.0,68.0,30.03,NW,325,6.0,16.0,84,0.00,,,0.00,meteohub,2013-05-12 03:57:00,
2013-05-11 18:01:00,72.9,68.4,30.03,West,264,4.0,16.0,86,0.00,,,0.00,meteohub,2013-05-12 04:01:00,
2013-05-11 18:02:00,72.9,68.4,30.03,NNE,15,10.0,16.0,86,0.00,,,0.00,meteohub,2013-05-12 04:02:00,
2013-05-11 18:03:00,72.9,68.4,30.03,WNW,285,9.0,16.0,86,0.00,,,0.00,meteohub,2013-05-12 04:03:00,
2013-05-11 18:08:00,72.3,68.2,30.03,NNW,333,10.0,12.0,87,0.00,,,0.00,meteohub,2013-05-12 04:08:00,
2013-05-11 18:13:00,72.1,68.0,30.03,NNE,26,8.0,15.0,87,0.00,,,0.00,meteohub,2013-05-12 04:13:00,
2013-05-11 18:18:00,72.0,67.8,30.03,NW,326,7.0,15.0,87,0.00,,,0.00,meteohub,2013-05-12 04:18:00,
2013-05-11 18:23:00,71.6,67.5,30.04,West,280,2.0,15.0,87,0.00,,,0.00,meteohub,2013-05-12 04:23:00,
2013-05-11 18:28:00,71.4,67.6,30.04,NW,310,2.0,16.0,88,0.00,,,0.00,meteohub,2013-05-12 04:28:00,
2013-05-11 18:33:00,71.4,67.6,30.04,North,11,5.0,16.0,88,0.00,,,0.00,meteohub,2013-05-12 04:33:00,
2013-05-11 18:38:00,71.2,67.8,30.04,NW,325,6.0,15.0,89,0.00,,,0.00,meteohub,2013-05-12 04:38:00,
2013-05-11 18:43:00,71.1,67.6,30.04,NNW,329,4.0,14.0,89,0.00,,,0.00,meteohub,2013-05-12 04:43:00,
2013-05-11 18:48:00,70.9,67.5,30.05,WNW,297,13.0,13.0,89,0.00,,,0.00,meteohub,2013-05-12 04:48:00,
2013-05-11 18:53:00,70.9,67.8,30.05,NW,318,8.0,12.0,90,0.00,,,0.00,meteohub,2013-05-12 04:53:00,
2013-05-11 18:58:00,70.5,67.5,30.05,NNE,13,4.0,13.0,90,0.00,,,0.00,meteohub,2013-05-12 04:58:00,
2013-05-11 19:03:00,70.2,67.1,30.05,NE,51,9.0,13.0,90,0.00,,,0.00,meteohub,2013-05-12 05:03:00,
2013-05-11 19:08:00,70.0,66.6,30.05,NE,48,5.0,13.0,89,0.00,,,0.00,meteohub,2013-05-12 05:08:00,
2013-05-11 19:14:00,70.2,67.1,30.05,NNW,330,5.0,15.0,90,0.00,,,0.00,meteohub,2013-05-12 05:14:00,
2013-05-11 19:19:00,70.2,66.7,30.05,NNW,330,6.0,15.0,89,0.00,,,0.00,meteohub,2013-05-12 05:19:00,
2013-05-11 19:24:00,70.2,66.7,30.05,NNW,339,10.0,14.0,89,0.00,,,0.00,meteohub,2013-05-12 05:24:00,
2013-05-11 19:29:00,70.0,66.6,30.06,NNW,340,9.0,18.0,89,0.00,,,0.00,meteohub,2013-05-12 05:29:00,
2013-05-11 19:34:00,69.8,66.0,30.06,NNE,13,4.0,18.0,88,0.00,,,0.00,meteohub,2013-05-12 05:34:00,
2013-05-11 19:39:00,69.8,66.0,30.06,NNE,15,4.0,18.0,88,0.00,,,0.00,meteohub,2013-05-12 05:39:00,
2013-05-11 19:44:00,70.0,66.0,30.06,NNE,27,2.0,15.0,87,0.00,,,0.00,meteohub,2013-05-12 05:44:00,
2013-05-11 19:49:00,70.3,66.2,30.06,North,0,2.0,16.0,87,0.00,,,0.00,meteohub,2013-05-12 05:49:00,
2013-05-11 19:54:00,70.5,66.4,30.06,NE,51,5.0,16.0,87,0.00,,,0.00,meteohub,2013-05-12 05:54:00,
2013-05-11 19:59:00,70.5,66.2,30.06,NE,50,5.0,16.0,86,0.00,,,0.00,meteohub,2013-05-12 05:59:00,
2013-05-11 20:04:00,70.2,65.1,30.06,NE,47,4.0,12.0,84,0.00,,,0.00,meteohub,2013-05-12 06:04:00,
2013-05-11 20:09:00,70.3,65.3,30.06,NNE,15,7.0,13.0,84,0.00,,,0.00,meteohub,2013-05-12 06:09:00,
2013-05-11 20:14:00,70.5,65.5,30.06,NE,37,8.0,18.0,84,0.00,,,0.00,meteohub,2013-05-12 06:14:00,
2013-05-11 20:19:00,70.7,65.7,30.06,NE,46,5.0,18.0,84,0.00,,,0.00,meteohub,2013-05-12 06:19:00,
2013-05-11 20:24:00,71.1,66.4,30.06,East,91,5.0,18.0,85,0.00,,,0.00,meteohub,2013-05-12 06:24:00,
2013-05-11 20:29:00,71.2,66.6,30.07,NE,50,3.0,13.0,85,0.00,,,0.00,meteohub,2013-05-12 06:29:00,
2013-05-11 20:34:00,71.4,66.7,30.07,NE,42,5.0,12.0,85,0.00,,,0.00,meteohub,2013-05-12 06:34:00,
2013-05-11 20:39:00,71.6,66.6,30.07,North,352,3.0,17.0,84,0.00,,,0.00,meteohub,2013-05-12 06:39:00,
2013-05-11 20:45:00,71.8,66.7,30.07,NNE,22,3.0,17.0,84,0.00,,,0.00,meteohub,2013-05-12 06:45:00,
2013-05-11 20:50:00,72.0,66.6,30.07,North,9,3.0,17.0,83,0.00,,,0.00,meteohub,2013-05-12 06:50:00,
2013-05-11 20:55:00,72.0,66.6,30.07,NNE,30,1.0,11.0,83,0.00,,,0.00,meteohub,2013-05-12 06:55:00,
2013-05-11 21:00:00,72.1,66.7,30.07,NE,49,2.0,11.0,83,0.00,,,0.00,meteohub,2013-05-12 07:00:00,
2013-05-11 21:05:00,72.1,66.4,30.07,NE,53,4.0,11.0,82,0.00,,,0.00,meteohub,2013-05-12 07:05:00,
2013-05-11 21:10:00,72.3,66.6,30.06,NE,37,2.0,7.0,82,0.00,,,0.00,meteohub,2013-05-12 07:10:00,
2013-05-11 21:15:00,72.3,66.6,30.06,ENE,59,3.0,7.0,82,0.00,,,0.00,meteohub,2013-05-12 07:15:00,
2013-05-11 21:20:00,72.1,66.4,30.06,ENE,58,2.0,7.0,82,0.00,,,0.00,meteohub,2013-05-12 07:20:00,
2013-05-11 21:25:00,72.1,66.4,30.06,NE,47,2.0,7.0,82,0.00,,,0.00,meteohub,2013-05-12 07:25:00,
2013-05-11 21:30:00,72.0,66.2,30.06,NNE,26,0.0,5.0,82,0.00,,,0.00,meteohub,2013-05-12 07:30:00,
2013-05-11 21:35:00,72.0,66.2,30.07,NNW,330,0.0,5.0,82,0.00,,,0.00,meteohub,2013-05-12 07:35:00,
2013-05-11 21:40:00,72.0,66.2,30.06,East,80,0.0,4.0,82,0.00,,,0.00,meteohub,2013-05-12 07:40:00,
2013-05-11 21:45:00,72.0,66.2,30.06,NE,51,0.0,3.0,82,0.00,,,0.00,meteohub,2013-05-12 07:45:00,
2013-05-11 21:50:00,72.0,66.2,30.07,WNW,296,1.0,3.0,82,0.00,,,0.00,meteohub,2013-05-12 07:50:00,
2013-05-11 21:55:00,72.0,66.2,30.07,WNW,300,4.0,5.0,82,0.00,,,0.00,meteohub,2013-05-12 07:55:00,
2013-05-11 22:00:00,72.0,66.2,30.07,NW,315,2.0,9.0,82,0.00,,,0.00,meteohub,2013-05-12 08:00:00,
2013-05-11 22:05:00,71.6,66.2,30.06,WNW,286,5.0,9.0,83,0.00,,,0.00,meteohub,2013-05-12 08:05:00,
2013-05-11 22:10:00,71.4,66.0,30.07,North,11,1.0,8.0,83,0.00,,,0.00,meteohub,2013-05-12 08:10:00,
2013-05-11 22:16:00,71.2,66.2,30.07,ENE,65,0.0,8.0,84,0.00,,,0.00,meteohub,2013-05-12 08:16:00,
2013-05-11 22:21:00,71.1,66.0,30.07,NNW,328,2.0,6.0,84,0.00,,,0.00,meteohub,2013-05-12 08:21:00,
2013-05-11 22:26:00,71.1,66.0,30.07,NNW,328,0.0,4.0,84,0.00,,,0.00,meteohub,2013-05-12 08:26:00,
2013-05-11 22:31:00,70.9,65.8,30.07,NW,316,2.0,4.0,84,0.00,,,0.00,meteohub,2013-05-12 08:31:00,
2013-05-11 22:36:00,70.9,65.8,30.08,NNE,23,3.0,6.0,84,0.00,,,0.00,meteohub,2013-05-12 08:36:00,
2013-05-11 22:41:00,70.9,65.8,30.08,North,356,2.0,6.0,84,0.00,,,0.00,meteohub,2013-05-12 08:41:00,
2013-05-11 22:46:00,70.7,65.7,30.08,East,79,0.0,6.0,84,0.00,,,0.00,meteohub,2013-05-12 08:46:00,
2013-05-11 22:51:00,70.7,65.7,30.08,ENE,70,1.0,6.0,84,0.00,,,0.00,meteohub,2013-05-12 08:51:00,
2013-05-11 22:56:00,70.7,66.0,30.08,NE,53,1.0,5.0,85,0.00,,,0.00,meteohub,2013-05-12 08:56:00,
2013-05-11 23:01:00,70.9,66.2,30.08,NE,40,0.0,4.0,85,0.00,,,0.00,meteohub,2013-05-12 09:01:00,
2013-05-11 23:06:00,70.9,66.2,30.08,NNW,337,2.0,4.0,85,0.00,,,0.00,meteohub,2013-05-12 09:06:00,
2013-05-11 23:11:00,70.9,66.2,30.07,NE,45,2.0,3.0,85,0.00,,,0.00,meteohub,2013-05-12 09:11:00,
2013-05-11 23:16:00,70.9,65.8,30.07,NE,46,0.0,3.0,84,0.00,,,0.00,meteohub,2013-05-12 09:16:00,
2013-05-11 23:21:00,70.7,65.7,30.06,ESE,109,0.0,3.0,84,0.00,,,0.00,meteohub,2013-05-12 09:21:00,
2013-05-11 23:26:00,70.5,65.8,30.06,ESE,110,0.0,3.0,85,0.00,,,0.00,meteohub,2013-05-12 09:26:00,
2013-05-11 23:31:00,70.5,65.8,30.06,ESE,110,0.0,1.0,85,0.00,,,0.00,meteohub,2013-05-12 09:31:00,
2013-05-11 23:36:00,70.3,65.7,30.06,ENE,78,1.0,1.0,85,0.00,,,0.00,meteohub,2013-05-12 09:36:00,
2013-05-11 23:42:00,70.3,65.7,30.06,ENE,78,1.0,2.0,85,0.00,,,0.00,meteohub,2013-05-12 09:42:00,
2013-05-11 23:47:00,70.3,65.7,30.06,ENE,78,1.0,2.0,85,0.00,,,0.00,meteohub,2013-05-12 09:47:00,
2013-05-11 23:52:00,70.3,65.7,30.07,NW,325,6.0,6.0,85,0.00,,,0.00,meteohub,2013-05-12 09:52:00,
2013-05-11 23:57:00,70.2,65.8,30.06,NNE,27,2.0,6.0,86,0.00,,,0.00,meteohub,2013-05-12 09:57:00,